Cheraw, CO

2:10 PM MDT on September 25, 2016 (GMT -0600)
La Junta Municipal

Weather History for KLHX - November, 2013

Change the Weather History Date:

Thursday, November 7, 2013

  Actual Average Record
Temperature  
Mean Temperature 44 °F 45 °F  
Max Temperature 65 °F 60 °F 83 °F (1980)
Min Temperature 23 °F 30 °F 10 °F (1947)
Degree Days  
Heating Degree Days 21 20  
Month to date heating degree days 145 130  
Since 1 July heating degree days 517 552  
Cooling Degree Days 0 0  
Month to date cooling degree days 0 0  
Year to date cooling degree days 1663 1226  
Moisture  
Dew Point 17 °F    
Average Humidity 39    
Maximum Humidity 63    
Minimum Humidity 15    
Precipitation  
Precipitation 0.00 in 0.02 in 0.89 in (1957)
Month to date precipitation 0.04 0.12  
Year to date precipitation 5.02 10.94  
Sea Level Pressure  
Sea Level Pressure 30.28 in    
Wind  
Wind Speed 9 mph (South)    
Max Wind Speed 18 mph    
Max Gust Speed 22 mph    
Visibility 10 miles    
Events      
T = Trace of Precipitation, MM = Missing Value Source: NWS Daily Summary

Daily Weather History Graph

Daily Weather History Graph

Search for Another Location

Airport or City:

Trip Planner

Search our weather history database for the weather conditions in past years. The results will help you decide how hot, cold, wet, or windy it might be!

Date:

Astronomy

Nov. 07, 2013 Rise Set
Actual Time 6:26 AM MST 4:48 PM MST
Civil Twilight 5:58 AM MST 5:16 PM MST
Nautical Twilight 5:27 AM MST 5:47 PM MST
Astronomical Twilight 4:56 AM MST 6:18 PM MST
Moon 10:36 AM MST (11/7) 9:03 PM MST (11/7)
Length of Visible Light 11h 17m
Length of Day
10h 21m
Waxing Crescent, 23% of the Moon is Illuminated
Nov 7
Waxing Crescent
Nov 9
First Quarter
Nov 17
Full
Nov 25
Last Quarter
Dec 2
New

Hourly Weather History & Observations

Time (MST) Temp. Windchill Dew Point Humidity Pressure Visibility Wind Dir Wind Speed Gust Speed Precip Events Conditions
12:53 AM 30.0 °F 20.5 °F 15.1 °F 54% 30.38 in 10.0 mi West 11.5 mph - N/A   Clear
1:53 AM 28.9 °F 19.2 °F 15.1 °F 56% 30.38 in 10.0 mi West 11.5 mph - N/A   Clear
2:53 AM 28.0 °F 20.8 °F 15.1 °F 58% 30.39 in 10.0 mi West 6.9 mph - N/A   Clear
3:53 AM 27.0 °F 18.7 °F 15.1 °F 61% 30.40 in 10.0 mi WSW 8.1 mph - N/A   Clear
4:53 AM 26.1 °F 18.4 °F 14.0 °F 60% 30.44 in 10.0 mi West 6.9 mph - N/A   Clear
5:53 AM 25.0 °F 17.1 °F 14.0 °F 63% 30.46 in 10.0 mi WNW 6.9 mph - N/A   Clear
6:53 AM 26.1 °F - 14.0 °F 60% 30.48 in 10.0 mi Calm Calm - N/A   Clear
7:53 AM 33.1 °F 27.7 °F 16.0 °F 50% 30.48 in 10.0 mi West 5.8 mph - N/A   Clear
8:53 AM 36.0 °F 33.3 °F 17.1 °F 46% 30.47 in 10.0 mi West 3.5 mph - N/A   Clear
9:53 AM 46.0 °F - 17.1 °F 31% 30.43 in 10.0 mi Calm Calm - N/A   Clear
10:53 AM 50.0 °F - 17.1 °F 27% 30.39 in 10.0 mi SE 3.5 mph - N/A   Clear
11:53 AM 57.0 °F - 18.0 °F 22% 30.33 in 10.0 mi ESE 10.4 mph - N/A   Clear
12:53 PM 62.1 °F - 16.0 °F 17% 30.25 in 10.0 mi SE 9.2 mph - N/A   Clear
1:53 PM 64.0 °F - 15.1 °F 15% 30.20 in 10.0 mi SSE 8.1 mph - N/A   Clear
2:53 PM 64.9 °F - 16.0 °F 15% 30.17 in 10.0 mi ESE 12.7 mph - N/A   Clear
3:53 PM 64.0 °F - 17.1 °F 16% 30.15 in 10.0 mi ESE 18.4 mph - N/A   Clear
4:53 PM 57.0 °F - 18.0 °F 22% 30.15 in 10.0 mi ESE 13.8 mph - N/A   Clear
5:53 PM 52.0 °F - 19.0 °F 27% 30.16 in 10.0 mi East 11.5 mph - N/A   Clear
6:53 PM 48.0 °F - 21.0 °F 34% 30.16 in 10.0 mi East 11.5 mph - N/A   Clear
7:53 PM 44.1 °F 39.5 °F 21.0 °F 40% 30.13 in 10.0 mi ESE 8.1 mph - N/A   Clear
8:53 PM 43.0 °F 41.3 °F 21.0 °F 42% 30.11 in 10.0 mi ESE 3.5 mph - N/A   Clear
9:53 PM 41.0 °F 34.3 °F 18.0 °F 40% 30.07 in 10.0 mi SW 11.5 mph - N/A   Clear
10:53 PM 37.0 °F 27.7 °F 19.0 °F 48% 30.04 in 10.0 mi West 16.1 mph - N/A   Clear
11:53 PM 37.0 °F 32.4 °F 19.0 °F 48% 30.03 in 10.0 mi South 5.8 mph - N/A   Clear